Simultaneous Nadir Overpasses (SNOs) Predictions

Prediction of SNOs between GOES-16 and NOAA-19 Satellite Orbit:

Table of predicted SNOs for the next 14.0 days since TLE Epoch: 2/12/2022
Index Date Time (GOES-16) GOES-16 Lat,Lon NOAA-19 Lat,Lon Distance(km) Time Diff (sec)
1 02/14/2022 00:42:44 0.01, -75.18 -0.63, -77.80 300.10 80
2 02/15/2022 00:28:16 0.01, -75.18 0.05, -74.92 28.80 80
3 02/16/2022 00:16:29 0.01, -75.18 0.72, -72.04 357.66 80
4 02/18/2022 12:39:46 0.01, -75.22 0.42, -76.92 194.54 80
5 02/19/2022 12:25:18 0.01, -75.23 -0.27, -74.05 135.05 80
6 02/20/2022 12:13:30 0.01, -75.24 -0.91, -71.16 464.70 80
7 02/22/2022 00:48:47 -0.01, -75.23 -0.87, -78.98 427.83 80
8 02/23/2022 00:36:59 -0.01, -75.24 -0.19, -76.10 98.28 80
9 02/24/2022 00:22:32 -0.01, -75.25 0.49, -73.23 231.35 80
